Time,TemperatureF,DewpointF,PressureIn,WindDirection,WindDirectionDegrees,WindSpeedMPH,WindSpeedGustMPH,Humidity,HourlyPrecipIn,Conditions,Clouds,dailyrainin,SoftwareType,DateUTC
2013-10-29 00:01:00,39.0,19.5,25.28,SSW,205,0.0,4.0,45,0.00,,,0.00,Weather View 32 v70,2013-10-29 04:01:00,
2013-10-29 00:02:00,39.0,19.5,25.28,SSW,205,0.0,4.0,45,0.00,,,0.00,Weather View 32 v70,2013-10-29 04:02:00,
2013-10-29 00:07:00,39.0,19.5,25.28,West,278,0.0,4.0,45,0.00,,,0.00,Weather View 32 v70,2013-10-29 04:07:00,
2013-10-29 00:12:00,39.0,19.5,25.28,ENE,74,0.0,3.0,45,0.00,,,0.00,Weather View 32 v70,2013-10-29 04:12:00,
2013-10-29 00:17:00,39.0,19.5,25.28,ENE,74,0.0,3.0,45,0.00,,,0.00,Weather View 32 v70,2013-10-29 04:17:00,
2013-10-29 00:22:00,38.8,19.3,25.28,ENE,74,0.0,3.0,45,0.00,,,0.00,Weather View 32 v70,2013-10-29 04:22:00,
2013-10-29 00:27:00,38.8,19.8,25.28,ENE,74,0.0,3.0,46,0.00,,,0.00,Weather View 32 v70,2013-10-29 04:27:00,
2013-10-29 00:32:00,38.8,19.8,25.28,ENE,74,0.0,3.0,46,0.00,,,0.00,Weather View 32 v70,2013-10-29 04:32:00,
2013-10-29 00:37:00,38.8,19.8,25.28,ENE,74,0.0,3.0,46,0.00,,,0.00,Weather View 32 v70,2013-10-29 04:37:00,
2013-10-29 00:42:00,38.8,19.8,25.28,ENE,74,0.0,3.0,46,0.00,,,0.00,Weather View 32 v70,2013-10-29 04:42:00,
2013-10-29 00:47:00,38.8,19.8,25.28,ENE,74,0.0,3.0,46,0.00,,,0.00,Weather View 32 v70,2013-10-29 04:47:00,
2013-10-29 00:52:00,38.7,19.6,25.28,ENE,74,0.0,3.0,46,0.00,,,0.00,Weather View 32 v70,2013-10-29 04:52:00,
2013-10-29 00:57:00,38.7,20.1,25.28,ENE,74,0.0,3.0,47,0.00,,,0.00,Weather View 32 v70,2013-10-29 04:57:00,
2013-10-29 01:02:00,38.5,20.0,25.28,ENE,74,0.0,0.0,47,0.00,,,0.00,Weather View 32 v70,2013-10-29 05:02:00,
2013-10-29 01:07:00,38.5,20.0,25.28,ENE,74,0.0,0.0,47,0.00,,,0.00,Weather View 32 v70,2013-10-29 05:07:00,
2013-10-29 01:12:00,38.5,20.0,25.28,ENE,74,0.0,0.0,47,0.00,,,0.00,Weather View 32 v70,2013-10-29 05:12:00,
2013-10-29 01:17:00,38.5,20.0,25.28,ENE,74,0.0,0.0,47,0.00,,,0.00,Weather View 32 v70,2013-10-29 05:17:00,
2013-10-29 01:22:00,38.5,20.5,25.28,ENE,74,0.0,0.0,48,0.00,,,0.00,Weather View 32 v70,2013-10-29 05:22:00,
2013-10-29 01:27:00,38.5,20.5,25.28,ENE,74,0.0,0.0,48,0.00,,,0.00,Weather View 32 v70,2013-10-29 05:27:00,
2013-10-29 01:32:00,38.5,20.5,25.28,ENE,74,0.0,0.0,48,0.00,,,0.00,Weather View 32 v70,2013-10-29 05:32:00,
2013-10-29 01:37:00,38.3,20.3,25.28,ENE,74,0.0,0.0,48,0.00,,,0.00,Weather View 32 v70,2013-10-29 05:37:00,
2013-10-29 01:42:00,38.5,20.5,25.28,ENE,74,0.0,0.0,48,0.00,,,0.00,Weather View 32 v70,2013-10-29 05:42:00,
2013-10-29 01:47:00,38.5,20.5,25.28,ENE,74,0.0,0.0,48,0.00,,,0.00,Weather View 32 v70,2013-10-29 05:47:00,
2013-10-29 01:52:00,38.5,20.5,25.28,ENE,74,0.0,0.0,48,0.00,,,0.00,Weather View 32 v70,2013-10-29 05:52:00,
2013-10-29 01:57:00,38.5,20.5,25.28,ENE,74,0.0,0.0,48,0.00,,,0.00,Weather View 32 v70,2013-10-29 05:57:00,
2013-10-29 02:02:00,38.5,20.5,25.28,East,92,0.0,0.0,48,0.00,,,0.00,Weather View 32 v70,2013-10-29 06:02:00,
2013-10-29 02:07:00,38.3,20.3,25.28,East,92,0.0,0.0,48,0.00,,,0.00,Weather View 32 v70,2013-10-29 06:07:00,
2013-10-29 02:12:00,38.3,20.3,25.28,East,92,0.0,0.0,48,0.00,,,0.00,Weather View 32 v70,2013-10-29 06:12:00,
2013-10-29 02:17:00,38.3,20.3,25.28,NNW,335,0.0,0.0,48,0.00,,,0.00,Weather View 32 v70,2013-10-29 06:17:00,
2013-10-29 02:22:00,38.3,20.3,25.28,NNW,335,0.0,0.0,48,0.00,,,0.00,Weather View 32 v70,2013-10-29 06:22:00,
2013-10-29 02:27:00,38.3,20.3,25.28,NNW,335,0.0,0.0,48,0.00,,,0.00,Weather View 32 v70,2013-10-29 06:27:00,
2013-10-29 02:32:00,38.3,20.3,25.28,NNW,335,0.0,0.0,48,0.00,,,0.00,Weather View 32 v70,2013-10-29 06:32:00,
2013-10-29 02:37:00,38.3,20.8,25.28,NNW,335,0.0,0.0,49,0.00,,,0.00,Weather View 32 v70,2013-10-29 06:37:00,
2013-10-29 02:42:00,38.3,20.8,25.28,NE,37,0.0,2.0,49,0.00,,,0.00,Weather View 32 v70,2013-10-29 06:42:00,
2013-10-29 02:47:00,38.3,20.8,25.28,NNW,330,0.0,3.0,49,0.00,,,0.00,Weather View 32 v70,2013-10-29 06:47:00,
2013-10-29 02:52:00,38.3,20.8,25.28,NNW,338,0.0,3.0,49,0.00,,,0.00,Weather View 32 v70,2013-10-29 06:52:00,
2013-10-29 02:57:00,38.3,20.8,25.28,NNW,339,0.0,3.0,49,0.00,,,0.00,Weather View 32 v70,2013-10-29 06:57:00,
2013-10-29 03:02:00,38.3,20.8,25.28,NW,323,0.0,3.0,49,0.00,,,0.00,Weather View 32 v70,2013-10-29 07:02:00,
2013-10-29 03:07:00,38.1,20.6,25.28,NNW,335,0.0,4.0,49,0.00,,,0.00,Weather View 32 v70,2013-10-29 07:07:00,
2013-10-29 03:12:00,38.1,20.6,25.28,North,353,0.0,4.0,49,0.00,,,0.00,Weather View 32 v70,2013-10-29 07:12:00,
2013-10-29 03:17:00,38.1,20.6,25.28,North,353,0.0,4.0,49,0.00,,,0.00,Weather View 32 v70,2013-10-29 07:17:00,
2013-10-29 03:22:00,38.1,20.6,25.28,North,353,0.0,4.0,49,0.00,,,0.00,Weather View 32 v70,2013-10-29 07:22:00,
2013-10-29 03:27:00,38.1,20.6,25.28,NE,41,0.0,4.0,49,0.00,,,0.00,Weather View 32 v70,2013-10-29 07:27:00,
2013-10-29 03:32:00,38.1,20.6,25.28,NNE,21,0.0,4.0,49,0.00,,,0.00,Weather View 32 v70,2013-10-29 07:32:00,
2013-10-29 03:37:00,38.1,20.6,25.28,North,3,0.0,4.0,49,0.00,,,0.00,Weather View 32 v70,2013-10-29 07:37:00,
2013-10-29 03:42:00,37.9,20.5,25.28,NNW,336,0.0,4.0,49,0.00,,,0.00,Weather View 32 v70,2013-10-29 07:42:00,
2013-10-29 03:47:00,37.9,20.5,25.28,NNW,333,0.0,4.0,49,0.00,,,0.00,Weather View 32 v70,2013-10-29 07:47:00,
2013-10-29 03:52:00,37.9,20.5,25.28,NNW,339,0.0,4.0,49,0.00,,,0.00,Weather View 32 v70,2013-10-29 07:52:00,
2013-10-29 03:57:00,37.9,20.5,25.28,NNW,344,0.0,4.0,49,0.00,,,0.00,Weather View 32 v70,2013-10-29 07:57:00,
2013-10-29 04:02:00,37.9,20.5,25.28,North,353,0.0,4.0,49,0.00,,,0.00,Weather View 32 v70,2013-10-29 08:02:00,
2013-10-29 04:07:00,37.9,20.5,25.28,North,353,0.0,3.0,49,0.00,,,0.00,Weather View 32 v70,2013-10-29 08:07:00,
2013-10-29 04:12:00,37.9,20.5,25.28,North,357,0.0,3.0,49,0.00,,,0.00,Weather View 32 v70,2013-10-29 08:12:00,
2013-10-29 04:17:00,37.9,20.9,25.28,North,357,0.0,3.0,50,0.00,,,0.00,Weather View 32 v70,2013-10-29 08:17:00,
2013-10-29 04:22:00,37.9,20.9,25.28,North,357,0.0,3.0,50,0.00,,,0.00,Weather View 32 v70,2013-10-29 08:22:00,
2013-10-29 04:27:00,37.9,20.5,25.28,NE,52,0.0,3.0,49,0.00,,,0.00,Weather View 32 v70,2013-10-29 08:27:00,
2013-10-29 04:32:00,37.9,20.5,25.28,NE,52,0.0,3.0,49,0.00,,,0.00,Weather View 32 v70,2013-10-29 08:32:00,
2013-10-29 04:37:00,37.9,20.9,25.28,NE,52,0.0,3.0,50,0.00,,,0.00,Weather View 32 v70,2013-10-29 08:37:00,
2013-10-29 04:42:00,37.9,20.9,25.28,NE,52,0.0,3.0,50,0.00,,,0.00,Weather View 32 v70,2013-10-29 08:42:00,
2013-10-29 04:47:00,37.9,20.9,25.28,NE,49,0.0,0.0,50,0.00,,,0.00,Weather View 32 v70,2013-10-29 08:47:00,
2013-10-29 04:52:00,37.9,20.9,25.28,NW,322,0.0,0.0,50,0.00,,,0.00,Weather View 32 v70,2013-10-29 08:52:00,
2013-10-29 04:57:00,37.9,20.9,25.28,NW,322,0.0,0.0,50,0.00,,,0.00,Weather View 32 v70,2013-10-29 08:57:00,
2013-10-29 05:02:00,37.9,20.9,25.28,NW,322,0.0,0.0,50,0.00,,,0.00,Weather View 32 v70,2013-10-29 09:02:00,
2013-10-29 05:07:00,37.9,20.9,25.28,WSW,248,0.0,0.0,50,0.00,,,0.00,Weather View 32 v70,2013-10-29 09:07:00,
2013-10-29 05:12:00,37.9,20.9,25.28,WSW,248,0.0,0.0,50,0.00,,,0.00,Weather View 32 v70,2013-10-29 09:12:00,
2013-10-29 05:17:00,37.9,20.9,25.28,WSW,248,0.0,0.0,50,0.00,,,0.00,Weather View 32 v70,2013-10-29 09:17:00,
2013-10-29 05:22:00,37.9,20.9,25.28,North,357,0.0,3.0,50,0.00,,,0.00,Weather View 32 v70,2013-10-29 09:22:00,
2013-10-29 05:27:00,37.8,20.8,25.28,WNW,293,0.0,3.0,50,0.00,,,0.00,Weather View 32 v70,2013-10-29 09:27:00,
2013-10-29 05:32:00,37.8,20.8,25.28,WNW,293,0.0,3.0,50,0.00,,,0.00,Weather View 32 v70,2013-10-29 09:32:00,
2013-10-29 05:37:00,37.8,20.8,25.28,NNE,18,0.0,3.0,50,0.00,,,0.00,Weather View 32 v70,2013-10-29 09:37:00,
2013-10-29 05:42:00,37.8,20.8,25.28,NNE,18,0.0,3.0,50,0.00,,,0.00,Weather View 32 v70,2013-10-29 09:42:00,
2013-10-29 05:47:00,37.8,20.8,25.28,North,357,0.0,3.0,50,0.00,,,0.00,Weather View 32 v70,2013-10-29 09:47:00,
2013-10-29 05:52:00,37.8,20.8,25.28,North,357,0.0,3.0,50,0.00,,,0.00,Weather View 32 v70,2013-10-29 09:52:00,
2013-10-29 05:57:00,37.8,20.8,25.28,North,357,0.0,3.0,50,0.00,,,0.00,Weather View 32 v70,2013-10-29 09:57:00,
2013-10-29 06:02:00,37.8,20.8,25.28,NNE,16,0.0,3.0,50,0.00,,,0.00,Weather View 32 v70,2013-10-29 10:02:00,
2013-10-29 06:07:00,37.8,21.2,25.28,NNE,16,0.0,3.0,51,0.00,,,0.00,Weather View 32 v70,2013-10-29 10:07:00,
2013-10-29 06:12:00,37.8,21.2,25.28,NNE,16,0.0,3.0,51,0.00,,,0.00,Weather View 32 v70,2013-10-29 10:12:00,
2013-10-29 06:17:00,37.8,21.2,25.28,NNE,16,0.0,3.0,51,0.00,,,0.00,Weather View 32 v70,2013-10-29 10:17:00,
2013-10-29 06:22:00,37.8,21.2,25.28,NNE,16,0.0,3.0,51,0.00,,,0.00,Weather View 32 v70,2013-10-29 10:22:00,
2013-10-29 06:27:00,37.6,21.1,25.28,NNE,16,0.0,0.0,51,0.00,,,0.00,Weather View 32 v70,2013-10-29 10:27:00,
2013-10-29 06:32:00,37.8,21.2,25.28,NNE,16,0.0,0.0,51,0.00,,,0.00,Weather View 32 v70,2013-10-29 10:32:00,
2013-10-29 06:37:00,37.8,21.2,25.28,NNE,16,0.0,0.0,51,0.00,,,0.00,Weather View 32 v70,2013-10-29 10:37:00,
2013-10-29 06:42:00,37.8,21.2,25.28,NNE,16,0.0,0.0,51,0.00,,,0.00,Weather View 32 v70,2013-10-29 10:42:00,
2013-10-29 06:47:00,37.6,21.1,25.28,NNE,16,0.0,0.0,51,0.00,,,0.00,Weather View 32 v70,2013-10-29 10:47:00,
2013-10-29 06:52:00,37.6,21.1,25.28,NNE,16,0.0,0.0,51,0.00,,,0.00,Weather View 32 v70,2013-10-29 10:52:00,
2013-10-29 06:57:00,37.6,21.5,25.28,NNE,16,0.0,0.0,52,0.00,,,0.00,Weather View 32 v70,2013-10-29 10:57:00,
2013-10-29 07:02:00,37.8,21.7,25.28,NNE,16,0.0,0.0,52,0.00,,,0.00,Weather View 32 v70,2013-10-29 11:02:00,
2013-10-29 07:07:00,37.8,21.7,25.28,NNE,16,0.0,0.0,52,0.00,,,0.00,Weather View 32 v70,2013-10-29 11:07:00,
2013-10-29 07:12:00,37.8,21.7,25.28,NNE,16,0.0,0.0,52,0.00,,,0.00,Weather View 32 v70,2013-10-29 11:12:00,
2013-10-29 07:17:00,37.8,21.7,25.28,NNE,16,0.0,0.0,52,0.00,,,0.00,Weather View 32 v70,2013-10-29 11:17:00,
2013-10-29 07:22:00,37.8,21.7,25.28,NNE,16,0.0,0.0,52,0.00,,,0.00,Weather View 32 v70,2013-10-29 11:22:00,
2013-10-29 07:27:00,37.8,21.7,25.28,NNE,16,0.0,0.0,52,0.00,,,0.00,Weather View 32 v70,2013-10-29 11:27:00,
2013-10-29 07:32:00,37.8,22.1,25.28,NNE,16,0.0,0.0,53,0.00,,,0.00,Weather View 32 v70,2013-10-29 11:32:00,
2013-10-29 07:37:00,37.6,22.0,25.28,NNE,16,0.0,0.0,53,0.00,,,0.00,Weather View 32 v70,2013-10-29 11:37:00,
2013-10-29 07:42:00,37.6,22.0,25.28,NNE,16,0.0,0.0,53,0.00,,,0.00,Weather View 32 v70,2013-10-29 11:42:00,
2013-10-29 07:47:00,37.6,22.0,25.28,NNE,16,0.0,0.0,53,0.00,,,0.00,Weather View 32 v70,2013-10-29 11:47:00,
2013-10-29 07:52:00,37.6,22.0,25.28,NNE,16,0.0,0.0,53,0.00,,,0.00,Weather View 32 v70,2013-10-29 11:52:00,
2013-10-29 07:57:00,37.8,22.1,25.28,NNE,16,0.0,0.0,53,0.00,,,0.00,Weather View 32 v70,2013-10-29 11:57:00,
2013-10-29 08:02:00,37.8,22.1,25.28,NNE,16,0.0,0.0,53,0.00,,,0.00,Weather View 32 v70,2013-10-29 12:02:00,
2013-10-29 08:07:00,37.8,22.1,25.28,NNE,16,0.0,0.0,53,0.00,,,0.00,Weather View 32 v70,2013-10-29 12:07:00,
2013-10-29 08:10:00,37.8,22.1,25.28,NNE,21,0.0,0.0,53,0.00,,,0.00,Weather View 32 v70,2013-10-29 12:10:00,
2013-10-29 08:12:00,37.8,22.1,25.28,NNE,21,0.0,0.0,53,0.00,,,0.00,Weather View 32 v70,2013-10-29 12:12:00,
2013-10-29 08:17:00,37.8,22.6,25.28,NNE,21,0.0,0.0,54,0.00,,,0.00,Weather View 32 v70,2013-10-29 12:17:00,
2013-10-29 08:22:00,37.8,22.6,25.28,NNE,21,0.0,0.0,54,0.00,,,0.00,Weather View 32 v70,2013-10-29 12:22:00,
2013-10-29 08:27:00,37.8,22.6,25.28,NNE,21,0.0,0.0,54,0.00,,,0.00,Weather View 32 v70,2013-10-29 12:27:00,
2013-10-29 08:32:00,37.8,22.6,25.28,NNE,21,0.0,0.0,54,0.00,,,0.00,Weather View 32 v70,2013-10-29 12:32:00,
2013-10-29 08:37:00,37.8,22.6,25.28,NNE,21,0.0,0.0,54,0.00,,,0.00,Weather View 32 v70,2013-10-29 12:37:00,
2013-10-29 08:42:00,37.8,22.6,25.28,NNE,21,0.0,0.0,54,0.00,,,0.00,Weather View 32 v70,2013-10-29 12:42:00,
2013-10-29 08:47:00,37.8,22.6,25.28,NNE,21,0.0,0.0,54,0.00,,,0.00,Weather View 32 v70,2013-10-29 12:47:00,
2013-10-29 08:52:00,37.9,23.2,25.28,NNE,21,0.0,0.0,55,0.00,,,0.00,Weather View 32 v70,2013-10-29 12:52:00,
2013-10-29 08:57:00,37.9,23.2,25.28,NNE,21,0.0,0.0,55,0.00,,,0.00,Weather View 32 v70,2013-10-29 12:57:00,
2013-10-29 09:02:00,37.9,23.2,25.28,NNE,21,0.0,0.0,55,0.00,,,0.00,Weather View 32 v70,2013-10-29 13:02:00,
2013-10-29 09:07:00,37.9,22.8,25.28,NNE,21,0.0,0.0,54,0.00,,,0.00,Weather View 32 v70,2013-10-29 13:07:00,
2013-10-29 09:12:00,38.1,22.9,25.28,NNE,21,0.0,0.0,54,0.00,,,0.00,Weather View 32 v70,2013-10-29 13:12:00,
2013-10-29 09:17:00,38.3,23.1,25.28,NNE,21,0.0,0.0,54,0.00,,,0.00,Weather View 32 v70,2013-10-29 13:17:00,
2013-10-29 09:22:00,38.3,23.1,25.28,NNE,21,0.0,0.0,54,0.00,,,0.00,Weather View 32 v70,2013-10-29 13:22:00,
2013-10-29 09:27:00,38.5,23.3,25.28,NNE,21,0.0,0.0,54,0.00,,,0.00,Weather View 32 v70,2013-10-29 13:27:00,
2013-10-29 09:32:00,38.5,23.3,25.28,NNE,21,0.0,0.0,54,0.00,,,0.00,Weather View 32 v70,2013-10-29 13:32:00,
2013-10-29 09:37:00,38.5,23.3,25.28,NNE,21,0.0,0.0,54,0.00,,,0.00,Weather View 32 v70,2013-10-29 13:37:00,
2013-10-29 09:42:00,38.7,23.4,25.28,NNE,21,0.0,0.0,54,0.00,,,0.00,Weather View 32 v70,2013-10-29 13:42:00,
2013-10-29 09:47:00,38.7,23.4,25.28,NNE,21,0.0,0.0,54,0.00,,,0.00,Weather View 32 v70,2013-10-29 13:47:00,
2013-10-29 09:52:00,38.7,23.4,25.28,NNE,21,0.0,0.0,54,0.00,,,0.00,Weather View 32 v70,2013-10-29 13:52:00,
2013-10-29 09:57:00,38.8,23.6,25.28,NNE,21,0.0,0.0,54,0.00,,,0.00,Weather View 32 v70,2013-10-29 13:57:00,
2013-10-29 10:02:00,39.0,23.8,25.28,NNE,21,0.0,0.0,54,0.00,,,0.00,Weather View 32 v70,2013-10-29 14:02:00,
2013-10-29 10:07:00,39.4,24.1,25.28,NNE,21,0.0,0.0,54,0.00,,,0.00,Weather View 32 v70,2013-10-29 14:07:00,
2013-10-29 10:12:00,39.4,24.1,25.28,NNE,21,0.0,0.0,54,0.00,,,0.00,Weather View 32 v70,2013-10-29 14:12:00,
2013-10-29 10:17:00,39.6,24.3,25.28,NNE,21,0.0,0.0,54,0.00,,,0.00,Weather View 32 v70,2013-10-29 14:17:00,
2013-10-29 10:22:00,39.7,24.4,25.28,NNE,21,0.0,0.0,54,0.00,,,0.00,Weather View 32 v70,2013-10-29 14:22:00,
2013-10-29 10:27:00,39.9,24.6,25.28,NNE,21,0.0,0.0,54,0.00,,,0.00,Weather View 32 v70,2013-10-29 14:27:00,
2013-10-29 10:32:00,40.1,24.3,25.28,NNE,21,0.0,0.0,53,0.00,,,0.00,Weather View 32 v70,2013-10-29 14:32:00,
2013-10-29 10:37:00,40.3,24.0,25.28,NNE,21,0.0,0.0,52,0.00,,,0.00,Weather View 32 v70,2013-10-29 14:37:00,
2013-10-29 10:42:00,40.3,24.0,25.28,NNE,21,0.0,0.0,52,0.00,,,0.00,Weather View 32 v70,2013-10-29 14:42:00,
2013-10-29 10:47:00,40.5,23.7,25.28,North,6,0.0,0.0,51,0.00,,,0.00,Weather View 32 v70,2013-10-29 14:47:00,
2013-10-29 10:52:00,40.6,23.9,25.28,NNE,27,0.0,0.0,51,0.00,,,0.00,Weather View 32 v70,2013-10-29 14:52:00,
2013-10-29 10:57:00,40.8,23.6,25.28,ENE,69,2.0,3.0,50,0.00,,,0.00,Weather View 32 v70,2013-10-29 14:57:00,
2013-10-29 11:02:00,41.0,23.8,25.28,ENE,77,0.0,3.0,50,0.00,,,0.00,Weather View 32 v70,2013-10-29 15:02:00,
2013-10-29 11:07:00,41.2,23.9,25.28,ESE,112,0.0,3.0,50,0.00,,,0.00,Weather View 32 v70,2013-10-29 15:07:00,
2013-10-29 11:12:00,41.4,23.6,25.28,ENE,73,0.0,3.0,49,0.00,,,0.00,Weather View 32 v70,2013-10-29 15:12:00,
2013-10-29 11:17:00,41.5,23.8,25.28,NE,56,0.0,4.0,49,0.00,,,0.00,Weather View 32 v70,2013-10-29 15:17:00,
2013-10-29 11:22:00,41.5,23.8,25.28,ENE,67,0.0,4.0,49,0.00,,,0.00,Weather View 32 v70,2013-10-29 15:22:00,
2013-10-29 11:27:00,41.5,23.8,25.28,ENE,67,0.0,4.0,49,0.00,,,0.00,Weather View 32 v70,2013-10-29 15:27:00,
2013-10-29 11:32:00,41.5,23.8,25.28,ENE,67,0.0,4.0,49,0.00,,,0.00,Weather View 32 v70,2013-10-29 15:32:00,
2013-10-29 11:37:00,41.5,23.3,25.28,SE,130,0.0,4.0,48,0.00,,,0.00,Weather View 32 v70,2013-10-29 15:37:00,
2013-10-29 11:42:00,41.5,23.3,25.28,East,93,0.0,4.0,48,0.00,,,0.00,Weather View 32 v70,2013-10-29 15:42:00,
2013-10-29 11:47:00,41.9,23.6,25.28,East,93,0.0,4.0,48,0.00,,,0.00,Weather View 32 v70,2013-10-29 15:47:00,
2013-10-29 11:52:00,42.1,23.8,25.28,East,93,0.0,4.0,48,0.00,,,0.00,Weather View 32 v70,2013-10-29 15:52:00,
2013-10-29 11:57:00,42.3,23.9,25.28,East,87,0.0,4.0,48,0.00,,,0.00,Weather View 32 v70,2013-10-29 15:57:00,
2013-10-29 12:02:00,42.4,23.6,25.28,East,87,0.0,4.0,47,0.00,,,0.00,Weather View 32 v70,2013-10-29 16:02:00,
2013-10-29 12:07:00,42.6,23.3,25.28,ESE,106,0.0,4.0,46,0.00,,,0.00,Weather View 32 v70,2013-10-29 16:07:00,
2013-10-29 12:12:00,42.6,22.7,25.28,East,96,0.0,4.0,45,0.00,,,0.00,Weather View 32 v70,2013-10-29 16:12:00,
2013-10-29 12:17:00,42.8,22.4,25.28,ESE,108,2.0,4.0,44,0.00,,,0.00,Weather View 32 v70,2013-10-29 16:17:00,
2013-10-29 12:22:00,42.8,22.4,25.28,ENE,62,0.0,4.0,44,0.00,,,0.00,Weather View 32 v70,2013-10-29 16:22:00,
2013-10-29 12:27:00,43.2,22.7,25.28,ESE,111,0.0,4.0,44,0.00,,,0.00,Weather View 32 v70,2013-10-29 16:27:00,
2013-10-29 12:32:00,43.5,23.0,25.28,ENE,66,0.0,4.0,44,0.00,,,0.00,Weather View 32 v70,2013-10-29 16:32:00,
2013-10-29 12:37:00,43.9,22.8,25.28,ENE,72,3.0,4.0,43,0.00,,,0.00,Weather View 32 v70,2013-10-29 16:37:00,
2013-10-29 12:42:00,43.9,22.8,25.28,ENE,63,0.0,4.0,43,0.00,,,0.00,Weather View 32 v70,2013-10-29 16:42:00,
2013-10-29 12:47:00,44.1,22.4,25.28,East,90,0.0,4.0,42,0.00,,,0.00,Weather View 32 v70,2013-10-29 16:47:00,
2013-10-29 12:52:00,44.4,22.7,25.28,East,84,0.0,4.0,42,0.00,,,0.00,Weather View 32 v70,2013-10-29 16:52:00,
2013-10-29 12:57:00,44.8,23.1,25.28,East,85,0.0,4.0,42,0.00,,,0.00,Weather View 32 v70,2013-10-29 16:57:00,
2013-10-29 13:02:00,45.0,22.6,25.28,East,93,0.0,4.0,41,0.00,,,0.00,Weather View 32 v70,2013-10-29 17:02:00,
2013-10-29 13:07:00,45.5,22.5,25.28,SE,130,0.0,4.0,40,0.00,,,0.00,Weather View 32 v70,2013-10-29 17:07:00,
2013-10-29 13:12:00,46.0,22.4,25.28,ESE,120,3.0,4.0,39,0.00,,,0.00,Weather View 32 v70,2013-10-29 17:12:00,
2013-10-29 13:17:00,46.8,23.1,25.28,ENE,57,2.0,5.0,39,0.00,,,0.00,Weather View 32 v70,2013-10-29 17:17:00,
2013-10-29 13:22:00,47.5,23.1,25.28,ESE,103,0.0,5.0,38,0.00,,,0.00,Weather View 32 v70,2013-10-29 17:22:00,
2013-10-29 13:27:00,48.0,23.6,25.28,ESE,120,3.0,5.0,38,0.00,,,0.00,Weather View 32 v70,2013-10-29 17:27:00,
2013-10-29 13:32:00,48.2,23.1,25.28,ESE,107,4.0,5.0,37,0.00,,,0.00,Weather View 32 v70,2013-10-29 17:32:00,
2013-10-29 13:37:00,48.0,22.9,25.28,ESE,105,0.0,5.0,37,0.00,,,0.00,Weather View 32 v70,2013-10-29 17:37:00,
2013-10-29 13:42:00,47.8,22.8,25.28,ESE,111,0.0,5.0,37,0.00,,,0.00,Weather View 32 v70,2013-10-29 17:42:00,
2013-10-29 13:47:00,48.2,23.1,25.28,East,100,4.0,5.0,37,0.00,,,0.00,Weather View 32 v70,2013-10-29 17:47:00,
2013-10-29 13:52:00,48.2,23.1,25.28,East,100,3.0,5.0,37,0.00,,,0.00,Weather View 32 v70,2013-10-29 17:52:00,
2013-10-29 13:57:00,47.8,23.4,25.28,ENE,77,4.0,5.0,38,0.00,,,0.00,Weather View 32 v70,2013-10-29 17:57:00,
2013-10-29 14:02:00,47.5,23.1,25.28,ESE,110,3.0,5.0,38,0.00,,,0.00,Weather View 32 v70,2013-10-29 18:02:00,
2013-10-29 14:07:00,47.1,22.8,25.28,ESE,113,0.0,5.0,38,0.00,,,0.00,Weather View 32 v70,2013-10-29 18:07:00,
2013-10-29 14:12:00,46.9,22.6,25.28,ESE,110,0.0,5.0,38,0.00,,,0.00,Weather View 32 v70,2013-10-29 18:12:00,
2013-10-29 14:17:00,47.7,23.3,25.28,ESE,122,0.0,5.0,38,0.00,,,0.00,Weather View 32 v70,2013-10-29 18:17:00,
2013-10-29 14:22:00,48.0,23.6,25.28,ENE,78,3.0,4.0,38,0.00,,,0.00,Weather View 32 v70,2013-10-29 18:22:00,
2013-10-29 14:27:00,48.0,23.6,0.00,ESE,106,3.0,4.0,38,0.00,,,0.00,Weather View 32 v70,2013-10-29 18:27:00,
2013-10-29 14:32:00,47.7,23.3,25.28,ESE,114,2.0,4.0,38,0.00,,,0.00,Weather View 32 v70,2013-10-29 18:32:00,
2013-10-29 14:37:00,47.7,23.3,25.28,ESE,107,0.0,4.0,38,0.00,,,0.00,Weather View 32 v70,2013-10-29 18:37:00,
2013-10-29 14:42:00,47.7,23.3,25.28,ESE,112,0.0,4.0,38,0.00,,,0.00,Weather View 32 v70,2013-10-29 18:42:00,
2013-10-29 14:47:00,47.7,23.3,25.28,ESE,103,0.0,4.0,38,0.00,,,0.00,Weather View 32 v70,2013-10-29 18:47:00,
2013-10-29 14:52:00,47.5,23.1,25.28,ESE,103,0.0,4.0,38,0.00,,,0.00,Weather View 32 v70,2013-10-29 18:52:00,
2013-10-29 14:57:00,47.3,22.9,25.28,ESE,103,0.0,4.0,38,0.00,,,0.00,Weather View 32 v70,2013-10-29 18:57:00,
2013-10-29 15:02:00,47.5,23.1,25.28,ESE,103,0.0,4.0,38,0.00,,,0.00,Weather View 32 v70,2013-10-29 19:02:00,
2013-10-29 15:07:00,47.7,23.3,25.28,East,93,0.0,4.0,38,0.00,,,0.00,Weather View 32 v70,2013-10-29 19:07:00,
2013-10-29 15:12:00,47.8,23.4,25.28,East,85,3.0,4.0,38,0.00,,,0.00,Weather View 32 v70,2013-10-29 19:12:00,
2013-10-29 15:17:00,48.0,23.6,25.28,East,82,3.0,4.0,38,0.00,,,0.00,Weather View 32 v70,2013-10-29 19:17:00,
2013-10-29 15:22:00,48.2,23.7,25.28,East,85,0.0,4.0,38,0.00,,,0.00,Weather View 32 v70,2013-10-29 19:22:00,
2013-10-29 15:27:00,48.0,23.6,25.28,ENE,70,0.0,4.0,38,0.00,,,0.00,Weather View 32 v70,2013-10-29 19:27:00,
2013-10-29 15:32:00,48.0,23.6,25.28,NNE,17,0.0,3.0,38,0.00,,,0.00,Weather View 32 v70,2013-10-29 19:32:00,
2013-10-29 15:37:00,48.2,23.7,25.28,ESE,107,3.0,3.0,38,0.00,,,0.00,Weather View 32 v70,2013-10-29 19:37:00,
2013-10-29 15:42:00,48.6,24.1,25.28,ESE,106,0.0,4.0,38,0.00,,,0.00,Weather View 32 v70,2013-10-29 19:42:00,
2013-10-29 15:47:00,48.7,23.6,25.28,ESE,106,0.0,4.0,37,0.00,,,0.00,Weather View 32 v70,2013-10-29 19:47:00,
2013-10-29 15:52:00,48.6,23.4,25.28,ESE,106,0.0,4.0,37,0.00,,,0.00,Weather View 32 v70,2013-10-29 19:52:00,
2013-10-29 15:57:00,48.4,23.3,25.28,ESE,106,3.0,4.0,37,0.00,,,0.00,Weather View 32 v70,2013-10-29 19:57:00,
2013-10-29 16:02:00,48.4,23.3,25.28,ESE,106,0.0,4.0,37,0.00,,,0.00,Weather View 32 v70,2013-10-29 20:02:00,
2013-10-29 16:07:00,48.4,23.9,25.28,East,96,0.0,4.0,38,0.00,,,0.00,Weather View 32 v70,2013-10-29 20:07:00,
2013-10-29 16:12:00,48.2,23.7,25.28,ENE,69,0.0,4.0,38,0.00,,,0.00,Weather View 32 v70,2013-10-29 20:12:00,
2013-10-29 16:17:00,48.2,23.7,25.28,ENE,73,3.0,4.0,38,0.00,,,0.00,Weather View 32 v70,2013-10-29 20:17:00,
2013-10-29 16:22:00,48.0,23.6,25.28,ENE,73,2.0,4.0,38,0.00,,,0.00,Weather View 32 v70,2013-10-29 20:22:00,
2013-10-29 16:27:00,48.0,23.6,0.00,ENE,70,4.0,4.0,38,0.00,,,0.00,Weather View 32 v70,2013-10-29 20:27:00,
2013-10-29 16:32:00,47.8,23.4,0.00,ESE,104,2.0,4.0,38,0.00,,,0.00,Weather View 32 v70,2013-10-29 20:32:00,
2013-10-29 16:37:00,47.7,23.3,0.00,ENE,75,0.0,4.0,38,0.00,,,0.00,Weather View 32 v70,2013-10-29 20:37:00,
2013-10-29 16:42:00,47.5,23.1,0.00,East,90,3.0,4.0,38,0.00,,,0.00,Weather View 32 v70,2013-10-29 20:42:00,
2013-10-29 16:47:00,47.5,23.1,25.28,ESE,117,0.0,4.0,38,0.00,,,0.00,Weather View 32 v70,2013-10-29 20:47:00,
2013-10-29 16:52:00,47.3,22.9,0.00,East,81,0.0,4.0,38,0.00,,,0.00,Weather View 32 v70,2013-10-29 20:52:00,
2013-10-29 16:57:00,47.3,22.9,25.28,ESE,110,0.0,4.0,38,0.00,,,0.00,Weather View 32 v70,2013-10-29 20:57:00,
2013-10-29 17:02:00,47.3,22.9,25.28,ENE,71,3.0,4.0,38,0.00,,,0.00,Weather View 32 v70,2013-10-29 21:02:00,
2013-10-29 17:07:00,47.1,23.4,25.28,East,100,4.0,4.0,39,0.00,,,0.00,Weather View 32 v70,2013-10-29 21:07:00,
2013-10-29 17:12:00,46.9,22.6,0.00,East,93,2.0,4.0,38,0.00,,,0.00,Weather View 32 v70,2013-10-29 21:12:00,
2013-10-29 17:17:00,46.9,23.2,25.28,ESE,111,0.0,4.0,39,0.00,,,0.00,Weather View 32 v70,2013-10-29 21:17:00,
2013-10-29 17:22:00,46.8,23.1,25.28,ESE,110,0.0,4.0,39,0.00,,,0.00,Weather View 32 v70,2013-10-29 21:22:00,
2013-10-29 17:27:00,46.8,23.1,25.28,ESE,110,0.0,4.0,39,0.00,,,0.00,Weather View 32 v70,2013-10-29 21:27:00,
2013-10-29 17:32:00,46.6,23.5,25.28,ESE,110,0.0,4.0,40,0.00,,,0.00,Weather View 32 v70,2013-10-29 21:32:00,
2013-10-29 17:37:00,46.4,23.4,25.28,East,95,0.0,4.0,40,0.00,,,0.00,Weather View 32 v70,2013-10-29 21:37:00,
2013-10-29 17:42:00,46.4,23.4,25.28,East,87,2.0,4.0,40,0.00,,,0.00,Weather View 32 v70,2013-10-29 21:42:00,
2013-10-29 17:47:00,46.4,23.4,25.28,East,87,0.0,4.0,40,0.00,,,0.00,Weather View 32 v70,2013-10-29 21:47:00,
2013-10-29 17:52:00,46.2,23.2,25.28,East,87,0.0,4.0,40,0.00,,,0.00,Weather View 32 v70,2013-10-29 21:52:00,
2013-10-29 17:57:00,46.0,23.6,25.28,East,96,0.0,4.0,41,0.00,,,0.00,Weather View 32 v70,2013-10-29 21:57:00,
2013-10-29 18:02:00,45.9,23.5,25.28,East,96,0.0,4.0,41,0.00,,,0.00,Weather View 32 v70,2013-10-29 22:02:00,
2013-10-29 18:07:00,45.9,24.0,25.28,East,96,0.0,4.0,42,0.00,,,0.00,Weather View 32 v70,2013-10-29 22:07:00,
2013-10-29 18:12:00,45.7,23.9,25.28,East,96,0.0,3.0,42,0.00,,,0.00,Weather View 32 v70,2013-10-29 22:12:00,
2013-10-29 18:17:00,45.5,23.7,25.28,East,96,0.0,3.0,42,0.00,,,0.00,Weather View 32 v70,2013-10-29 22:17:00,
2013-10-29 18:22:00,45.3,24.1,25.28,East,96,0.0,2.0,43,0.00,,,0.00,Weather View 32 v70,2013-10-29 22:22:00,
2013-10-29 18:27:00,45.3,23.5,25.28,East,96,0.0,2.0,42,0.00,,,0.00,Weather View 32 v70,2013-10-29 22:27:00,
2013-10-29 18:32:00,45.1,23.9,25.28,East,96,0.0,2.0,43,0.00,,,0.00,Weather View 32 v70,2013-10-29 22:32:00,
2013-10-29 18:37:00,45.0,24.3,25.28,East,96,0.0,2.0,44,0.00,,,0.00,Weather View 32 v70,2013-10-29 22:37:00,
2013-10-29 18:42:00,45.0,24.3,25.28,East,96,0.0,2.0,44,0.00,,,0.00,Weather View 32 v70,2013-10-29 22:42:00,
2013-10-29 18:47:00,44.8,24.7,25.28,East,96,0.0,0.0,45,0.00,,,0.00,Weather View 32 v70,2013-10-29 22:47:00,
2013-10-29 18:52:00,44.6,24.5,25.28,East,96,0.0,0.0,45,0.00,,,0.00,Weather View 32 v70,2013-10-29 22:52:00,
2013-10-29 18:57:00,44.6,24.5,25.28,East,96,0.0,0.0,45,0.00,,,0.00,Weather View 32 v70,2013-10-29 22:57:00,
2013-10-29 19:02:00,44.6,24.5,25.28,East,96,0.0,0.0,45,0.00,,,0.00,Weather View 32 v70,2013-10-29 23:02:00,
2013-10-29 19:07:00,44.4,24.9,25.28,East,96,0.0,0.0,46,0.00,,,0.00,Weather View 32 v70,2013-10-29 23:07:00,
2013-10-29 19:12:00,44.4,24.9,25.28,East,96,0.0,0.0,46,0.00,,,0.00,Weather View 32 v70,2013-10-29 23:12:00,
2013-10-29 19:17:00,44.2,25.3,25.28,East,96,0.0,0.0,47,0.00,,,0.00,Weather View 32 v70,2013-10-29 23:17:00,
2013-10-29 19:22:00,44.2,25.3,25.28,East,96,0.0,0.0,47,0.00,,,0.00,Weather View 32 v70,2013-10-29 23:22:00,
2013-10-29 19:27:00,44.1,25.6,25.28,East,96,0.0,0.0,48,0.00,,,0.00,Weather View 32 v70,2013-10-29 23:27:00,
2013-10-29 19:32:00,44.2,25.8,25.28,East,96,0.0,0.0,48,0.00,,,0.00,Weather View 32 v70,2013-10-29 23:32:00,
2013-10-29 19:37:00,44.2,25.8,25.28,East,96,0.0,0.0,48,0.00,,,0.00,Weather View 32 v70,2013-10-29 23:37:00,
2013-10-29 19:42:00,44.1,25.6,25.28,East,93,0.0,3.0,48,0.00,,,0.00,Weather View 32 v70,2013-10-29 23:42:00,
2013-10-29 19:47:00,44.1,25.6,25.28,ESE,109,0.0,3.0,48,0.00,,,0.00,Weather View 32 v70,2013-10-29 23:47:00,
2013-10-29 19:52:00,44.1,25.6,25.28,ESE,102,0.0,3.0,48,0.00,,,0.00,Weather View 32 v70,2013-10-29 23:52:00,
2013-10-29 19:57:00,44.1,24.6,25.28,ESE,104,0.0,3.0,46,0.00,,,0.00,Weather View 32 v70,2013-10-29 23:57:00,
2013-10-29 20:02:00,43.9,23.9,25.28,ESE,104,0.0,3.0,45,0.00,,,0.00,Weather View 32 v70,2013-10-30 00:02:00,
2013-10-29 20:07:00,43.9,23.9,25.28,ESE,104,0.0,3.0,45,0.00,,,0.00,Weather View 32 v70,2013-10-30 00:07:00,
2013-10-29 20:12:00,43.9,23.9,25.28,ESE,104,0.0,3.0,45,0.00,,,0.00,Weather View 32 v70,2013-10-30 00:12:00,
2013-10-29 20:17:00,43.7,23.7,25.28,ESE,104,0.0,3.0,45,0.00,,,0.00,Weather View 32 v70,2013-10-30 00:17:00,
2013-10-29 20:22:00,43.5,23.6,25.28,ESE,104,0.0,3.0,45,0.00,,,0.00,Weather View 32 v70,2013-10-30 00:22:00,
2013-10-29 20:27:00,43.3,23.4,25.28,ESE,104,0.0,3.0,45,0.00,,,0.00,Weather View 32 v70,2013-10-30 00:27:00,
2013-10-29 20:32:00,43.3,23.4,25.28,ESE,104,0.0,3.0,45,0.00,,,0.00,Weather View 32 v70,2013-10-30 00:32:00,
2013-10-29 20:37:00,43.2,23.2,25.28,ESE,104,0.0,3.0,45,0.00,,,0.00,Weather View 32 v70,2013-10-30 00:37:00,
2013-10-29 20:42:00,43.2,23.2,25.28,ESE,105,0.0,3.0,45,0.00,,,0.00,Weather View 32 v70,2013-10-30 00:42:00,
2013-10-29 20:47:00,42.6,23.3,25.28,ESE,105,0.0,0.0,46,0.00,,,0.00,Weather View 32 v70,2013-10-30 00:47:00,
2013-10-29 20:52:00,42.4,23.6,25.28,ESE,105,0.0,0.0,47,0.00,,,0.00,Weather View 32 v70,2013-10-30 00:52:00,
2013-10-29 20:57:00,42.6,23.3,25.28,ESE,105,0.0,0.0,46,0.00,,,0.00,Weather View 32 v70,2013-10-30 00:57:00,
2013-10-29 21:02:00,42.6,23.3,25.28,ESE,105,0.0,0.0,46,0.00,,,0.00,Weather View 32 v70,2013-10-30 01:02:00,
2013-10-29 21:07:00,42.6,23.3,25.28,ESE,105,0.0,0.0,46,0.00,,,0.00,Weather View 32 v70,2013-10-30 01:07:00,
2013-10-29 21:12:00,42.4,24.1,25.28,ESE,105,0.0,0.0,48,0.00,,,0.00,Weather View 32 v70,2013-10-30 01:12:00,
2013-10-29 21:17:00,42.3,23.9,25.28,ESE,105,0.0,0.0,48,0.00,,,0.00,Weather View 32 v70,2013-10-30 01:17:00,
2013-10-29 21:22:00,42.3,23.9,25.28,ESE,105,0.0,0.0,48,0.00,,,0.00,Weather View 32 v70,2013-10-30 01:22:00,
2013-10-29 21:27:00,42.3,23.9,25.28,ESE,105,0.0,0.0,48,0.00,,,0.00,Weather View 32 v70,2013-10-30 01:27:00,
2013-10-29 21:32:00,42.1,23.8,25.28,ESE,105,0.0,0.0,48,0.00,,,0.00,Weather View 32 v70,2013-10-30 01:32:00,
2013-10-29 21:37:00,41.9,24.1,25.28,ESE,105,0.0,0.0,49,0.00,,,0.00,Weather View 32 v70,2013-10-30 01:37:00,
2013-10-29 21:42:00,41.9,24.1,25.28,ESE,105,0.0,0.0,49,0.00,,,0.00,Weather View 32 v70,2013-10-30 01:42:00,
2013-10-29 21:47:00,41.9,24.1,25.28,ESE,105,0.0,0.0,49,0.00,,,0.00,Weather View 32 v70,2013-10-30 01:47:00,
2013-10-29 21:52:00,41.9,23.6,25.28,ESE,105,0.0,0.0,48,0.00,,,0.00,Weather View 32 v70,2013-10-30 01:52:00,
2013-10-29 21:57:00,41.9,23.6,25.28,ESE,105,0.0,0.0,48,0.00,,,0.00,Weather View 32 v70,2013-10-30 01:57:00,
2013-10-29 22:02:00,41.9,24.1,25.28,ESE,105,0.0,0.0,49,0.00,,,0.00,Weather View 32 v70,2013-10-30 02:02:00,
2013-10-29 22:07:00,41.9,24.1,25.28,ESE,105,0.0,0.0,49,0.00,,,0.00,Weather View 32 v70,2013-10-30 02:07:00,
2013-10-29 22:12:00,41.7,24.4,25.28,ESE,105,0.0,0.0,50,0.00,,,0.00,Weather View 32 v70,2013-10-30 02:12:00,
2013-10-29 22:17:00,41.5,24.3,25.28,ESE,105,0.0,0.0,50,0.00,,,0.00,Weather View 32 v70,2013-10-30 02:17:00,
2013-10-29 22:22:00,41.5,24.3,25.28,ESE,105,0.0,0.0,50,0.00,,,0.00,Weather View 32 v70,2013-10-30 02:22:00,
2013-10-29 22:27:00,41.5,24.3,25.28,ESE,105,0.0,0.0,50,0.00,,,0.00,Weather View 32 v70,2013-10-30 02:27:00,
2013-10-29 22:32:00,41.4,24.1,25.28,ESE,105,0.0,0.0,50,0.00,,,0.00,Weather View 32 v70,2013-10-30 02:32:00,
2013-10-29 22:37:00,41.4,24.1,25.28,ESE,105,0.0,0.0,50,0.00,,,0.00,Weather View 32 v70,2013-10-30 02:37:00,
2013-10-29 22:42:00,41.4,24.1,25.28,ESE,105,0.0,0.0,50,0.00,,,0.00,Weather View 32 v70,2013-10-30 02:42:00,
2013-10-29 22:47:00,41.2,24.4,25.28,ESE,105,0.0,0.0,51,0.00,,,0.00,Weather View 32 v70,2013-10-30 02:47:00,
2013-10-29 22:52:00,41.0,24.2,25.28,ESE,105,0.0,0.0,51,0.00,,,0.00,Weather View 32 v70,2013-10-30 02:52:00,
2013-10-29 22:57:00,40.6,24.4,25.28,ESE,105,0.0,0.0,52,0.00,,,0.00,Weather View 32 v70,2013-10-30 02:57:00,
2013-10-29 23:02:00,40.3,24.0,25.28,ESE,105,0.0,0.0,52,0.00,,,0.00,Weather View 32 v70,2013-10-30 03:02:00,
2013-10-29 23:07:00,39.7,24.0,25.28,ESE,105,0.0,0.0,53,0.00,,,0.00,Weather View 32 v70,2013-10-30 03:07:00,
2013-10-29 23:12:00,39.6,23.8,25.28,ESE,105,0.0,0.0,53,0.00,,,0.00,Weather View 32 v70,2013-10-30 03:12:00,
2013-10-29 23:17:00,39.6,24.3,25.28,ESE,105,0.0,0.0,54,0.00,,,0.00,Weather View 32 v70,2013-10-30 03:17:00,
2013-10-29 23:22:00,39.4,24.1,25.28,ESE,105,0.0,0.0,54,0.00,,,0.00,Weather View 32 v70,2013-10-30 03:22:00,
2013-10-29 23:27:00,39.2,24.4,25.28,ESE,105,0.0,0.0,55,0.00,,,0.00,Weather View 32 v70,2013-10-30 03:27:00,
2013-10-29 23:32:00,39.0,24.6,25.28,ESE,105,0.0,0.0,56,0.00,,,0.00,Weather View 32 v70,2013-10-30 03:32:00,
2013-10-29 23:37:00,39.2,24.8,25.28,ESE,105,0.0,0.0,56,0.00,,,0.00,Weather View 32 v70,2013-10-30 03:37:00,
2013-10-29 23:42:00,39.2,24.8,25.28,ESE,105,0.0,0.0,56,0.00,,,0.00,Weather View 32 v70,2013-10-30 03:42:00,
2013-10-29 23:47:00,39.0,24.6,25.28,ESE,105,0.0,0.0,56,0.00,,,0.00,Weather View 32 v70,2013-10-30 03:47:00,
2013-10-29 23:52:00,39.0,25.1,25.28,ESE,105,0.0,0.0,57,0.00,,,0.00,Weather View 32 v70,2013-10-30 03:52:00,
2013-10-29 23:57:00,39.0,25.1,25.28,ESE,105,0.0,0.0,57,0.00,,,0.00,Weather View 32 v70,2013-10-30 03:57:00,